TimeEDT,TemperatureF,Dew PointF,Humidity,Sea Level PressureIn,VisibilityMPH,Wind Direction,Wind SpeedMPH,Gust SpeedMPH,PrecipitationIn,Events,Conditions,WindDirDegrees,DateUTC
12:00 AM,54.0,53.2,97,-9999,-9999.0,East,3.5,-,N/A,,Unknown,90,2012-10-05 04:00:00
1:00 AM,52.2,51.4,97,-9999,-9999.0,NNE,3.5,-,N/A,,Unknown,30,2012-10-05 05:00:00
2:00 AM,54.3,53.8,98,-9999,-9999.0,SE,2.3,-,N/A,,Unknown,130,2012-10-05 06:00:00
3:00 AM,52.7,52.2,98,-9999,-9999.0,ENE,3.5,-,N/A,,Unknown,60,2012-10-05 07:00:00
4:00 AM,57.6,56.7,97,-9999,-9999.0,WSW,4.6,-,N/A,,Unknown,240,2012-10-05 08:00:00
5:00 AM,59.7,57.4,92,-9999,-9999.0,WSW,4.6,-,N/A,,Unknown,240,2012-10-05 09:00:00
6:00 AM,59.7,55.8,87,-9999,-9999.0,West,6.9,-,N/A,,Unknown,260,2012-10-05 10:00:00
7:00 AM,60.1,55.6,85,-9999,-9999.0,SW,11.5,-,N/A,,Unknown,230,2012-10-05 11:00:00
8:00 AM,58.8,55.6,89,-9999,-9999.0,WSW,6.9,-,N/A,,Unknown,250,2012-10-05 12:00:00
9:00 AM,60.4,54.9,82,-9999,-9999.0,SW,9.2,-,N/A,,Unknown,220,2012-10-05 13:00:00
10:00 AM,62.2,55.9,80,-9999,-9999.0,SSW,9.2,-,N/A,,Unknown,210,2012-10-05 14:00:00
11:00 AM,64.8,56.1,74,-9999,-9999.0,SSW,10.4,-,N/A,,Unknown,210,2012-10-05 15:00:00
12:00 PM,66.9,56.5,69,-9999,-9999.0,SSW,10.4,-,N/A,,Unknown,210,2012-10-05 16:00:00
1:00 PM,69.4,53.8,57,-9999,-9999.0,WSW,18.4,26.5,N/A,,Unknown,250,2012-10-05 17:00:00
2:00 PM,67.8,55.4,64,-9999,-9999.0,SW,12.7,-,N/A,,Unknown,220,2012-10-05 18:00:00
3:00 PM,69.8,53.6,56,-9999,-9999.0,SW,18.4,-,N/A,,Unknown,230,2012-10-05 19:00:00
4:00 PM,68.4,56.3,65,-9999,-9999.0,SW,15.0,-,N/A,,Unknown,230,2012-10-05 20:00:00
5:00 PM,67.8,56.7,67,-9999,-9999.0,WSW,13.8,-,N/A,,Unknown,240,2012-10-05 21:00:00
6:00 PM,68.2,57.2,68,-9999,-9999.0,SW,16.1,-,N/A,,Unknown,230,2012-10-05 22:00:00
7:00 PM,66.7,57.6,72,-9999,-9999.0,WSW,13.8,-,N/A,,Unknown,250,2012-10-05 23:00:00
8:00 PM,64.9,57.7,77,-9999,-9999.0,SSE,3.5,-,N/A,,Unknown,150,2012-10-06 00:00:00
9:00 PM,64.8,57.0,76,-9999,-9999.0,South,2.3,-,N/A,,Unknown,180,2012-10-06 01:00:00
10:00 PM,63.5,58.3,83,-9999,-9999.0,SW,5.8,-,N/A,,Unknown,230,2012-10-06 02:00:00
11:00 PM,64.0,57.4,79,-9999,-9999.0,WSW,5.8,-,N/A,,Unknown,240,2012-10-06 03:00:00